CW0198 Weather Reports


time (UTC)temp
F
wind
direction
speed
knots
gust
knots
rain 1hr
in
rain 24hr
in
rain mn
in
humidity
%
barometer
mb
20260904164532 92 266 2.6 6.1 0.00 0.00 0.00 72 1014.8
20260904163102 92 232 0.9 6.1 0.00 0.00 0.00 75 1014.8
20260904161518 91 217 2.6 6.1 0.00 0.00 0.00 73 1014.9
20260904160040 91 167 5.2 9.6 0.00 0.00 0.00 74 1014.9
20260904154558 90 229 3.5 7.8 0.00 0.00 0.00 74 1015.1
20260904153022 89 266 4.3 10.4 0.00 0.00 0.00 76 1015.2
20260904151526 88 232 0.9 5.2 0.00 0.00 0.00 79 1015.2
20260904150110 88 252 1.7 6.1 0.00 0.00 0.00 79 1015.1
20260904144514 87 278 2.6 6.1 0.00 0.00 0.00 80 1015.1
20260904143040 86 287 2.6 5.2 0.00 0.00 0.00 82 1015.3
20260904141609 85 243 3.5 9.6 0.00 0.00 0.00 83 1015.3
20260904140022 84 272 2.6 6.1 0.00 0.00 0.00 85 1015.2
20260904134552 84 230 2.6 6.1 0.00 0.00 0.00 87 1015.3
20260904133004 83 247 1.7 4.3 0.00 0.00 0.00 87 1015.2
20260904131530 82 314 2.6 6.1 0.00 0.00 0.00 89 1015.3
20260904130044 81 231 0.0 4.3 0.00 0.00 0.00 92 1015.3
20260904124505 79 233 0.9 4.3 0.00 0.00 0.00 94 1015.3
20260904123024 78 238 2.6 5.2 0.00 0.00 0.00 96 1015.3
20260904121547 76 210 0.9 4.3 0.00 0.00 0.00 97 1015.3
20260904120009 75 269 0.0 3.5 0.00 0.00 0.00 98 1015.3
20260904114537 75 248 0.0 1.7 0.00 0.00 0.00 98 1015.4
20260904113054 75 203 0.0 2.6 0.00 0.00 0.00 98 1015.2
20260904111526 74 214 0.0 1.7 0.00 0.00 0.00 98 1015.2
20260904110046 74 221 0.0 0.0 0.00 0.00 0.00 98 1015.2
20260904104512 74 226 0.0 0.9 0.00 0.00 0.00 98 1015.1
20260904103031 74 278 0.0 0.0 0.00 0.00 0.00 98 1015.0
20260904101556 74 217 0.0 0.0 0.00 0.00 0.00 98 1015.1
20260904100022 74 218 0.0 0.0 0.00 0.00 0.00 98 1014.9
20260904094544 74 216 0.0 0.0 0.00 0.00 0.00 98 1014.9
20260904093014 74 205 0.0 0.0 0.00 0.00 0.00 97 1014.9
20260904091534 74 212 0.0 0.0 0.00 0.00 0.00 97 1014.8
20260904090059 75 195 0.0 0.0 0.00 0.00 0.00 97 1014.7
20260904090002 75 198 0.0 0.0 0.00 0.00 0.00 97 1014.8
20260904084524 75 169 0.0 0.0 0.00 0.00 0.00 96 1014.5
20260904083058 75 160 0.0 0.0 0.00 0.00 0.00 96 1014.5
20260904081514 75 217 0.0 1.7 0.00 0.00 0.00 96 1014.3
20260904080035 75 210 0.0 1.7 0.00 0.00 0.00 96 1014.4
20260904074556 75 191 0.0 0.0 0.00 0.00 0.00 95 1014.4
20260904073025 75 226 0.0 0.0 0.00 0.00 0.00 95 1014.6
20260904071551 76 195 0.0 0.9 0.00 0.00 0.00 94 1014.7
20260904071501 76 196 0.0 0.9 0.00 0.00 0.00 94 1014.6
20260904070018 76 208 0.0 1.7 0.00 0.00 0.00 94 1014.6
20260904064550 76 202 0.0 0.0 0.00 0.00 0.00 94 1014.7
20260904063003 76 165 0.0 0.9 0.00 0.00 0.00 93 1015.0
20260904061533 77 202 0.0 0.0 0.00 0.00 0.00 92 1015.2
20260904060050 77 226 0.0 0.0 0.00 0.00 0.00 91 1015.5
20260904054524 77 231 0.0 0.0 0.00 0.00 0.00 91 1015.5
20260904053041 78 231 0.0 1.7 0.00 0.00 0.00 90 1015.8
20260904051505 78 227 0.0 0.9 0.00 0.00 0.00 90 1015.9
20260904050033 78 237 0.0 0.0 0.00 0.00 0.00 90 1015.9
20260904044556 79 227 0.0 2.6 0.00 0.00 0.00 89 1015.8
20260904043019 79 201 0.0 2.6 0.00 0.00 0.00 88 1015.8
20260904041541 79 176 0.0 4.3 0.00 0.00 0.00 88 1015.7
20260904040017 80 157 0.9 4.3 0.00 0.00 0.00 87 1015.5
20260904034521 80 199 1.7 5.2 0.00 0.00 0.00 87 1015.7
20260904033055 80 205 0.0 2.6 0.00 0.00 0.00 87 1015.9
20260904031523 81 207 0.9 2.6 0.00 0.00 0.00 87 1016.0
20260904030045 81 220 0.0 2.6 0.00 0.00 0.00 87 1015.9
20260904024512 81 214 0.9 3.5 0.00 0.00 0.00 87 1016.0
20260904023035 81 186 0.0 2.6 0.00 0.00 0.00 87 1016.0
20260904021606 82 158 0.9 2.6 0.00 0.00 0.00 86 1016.0
20260904020027 82 215 0.0 2.6 0.00 0.00 0.00 85 1015.9
20260904014601 82 270 0.0 1.7 0.00 0.00 0.00 84 1015.8
20260904013021 82 198 0.0 0.9 0.00 0.00 0.00 84 1015.6
20260904011556 82 207 0.0 0.0 0.00 0.00 0.00 83 1015.3
20260904010013 83 207 0.0 0.0 0.00 0.00 0.00 82 1015.2
20260904004549 84 154 0.0 0.0 0.00 0.00 0.00 80 1014.8
20260904003005 85 154 0.0 0.9 0.00 0.00 0.00 80 1014.5
20260904001536 85 165 0.0 0.0 0.00 0.00 0.00 79 1014.5
20260904000011 87 131 0.0 0.0 0.00 0.00 0.00 76 1014.3
20260903234533 88 149 0.0 0.9 0.00 0.00 0.00 74 1014.1
20260903233100 90 169 0.0 0.0 0.00 0.00 0.00 72 1014.0
20260903233001 90 169 0.0 0.0 0.00 0.00 0.00 72 1014.1
20260903231530 91 219 0.0 2.6 0.00 0.00 0.00 69 1014.1
20260903230053 92 134 0.0 3.5 0.00 0.00 0.00 69 1014.2
20260903224531 93 223 0.0 3.5 0.00 0.00 0.00 67 1014.1
20260903223047 94 168 1.7 4.3 0.00 0.00 0.00 66 1014.1
20260903221503 94 164 1.7 5.2 0.00 0.00 0.00 65 1014.1
20260903220044 95 195 0.9 4.3 0.00 0.00 0.00 65 1014.1
20260903214608 96 207 0.9 4.3 0.00 0.00 0.00 65 1014.1
20260903213028 96 203 2.6 5.2 0.00 0.00 0.00 62 1014.2
20260903211540 96 187 1.7 5.2 0.00 0.00 0.00 64 1014.3
20260903210127 96 227 0.9 4.3 0.00 0.00 0.00 64 1014.1
20260903210000 96 207 1.7 4.3 0.00 0.00 0.00 64 1014.1
20260903204529 96 226 1.7 4.3 0.00 0.00 0.00 64 1014.1
20260903203106 97 221 0.9 4.3 0.00 0.00 0.00 61 1014.2
20260903201518 97 217 0.9 2.6 0.00 0.00 0.00 60 1014.4
20260903200050 97 158 1.7 4.3 0.00 0.00 0.00 62 1014.5
20260903194601 98 290 0.0 3.5 0.00 0.00 0.00 62 1014.6
20260903194507 98 179 0.0 3.5 0.00 0.00 0.00 60 1014.7
20260903193027 97 248 2.6 7.0 0.00 0.00 0.00 64 1014.9
20260903191550 98 225 0.9 4.3 0.00 0.00 0.00 62 1014.9
20260903190017 97 205 1.7 3.5 0.00 0.00 0.00 62 1015.1
20260903184535 97 221 0.0 4.3 0.00 0.00 0.00 60 1015.4
20260903183054 97 218 0.9 4.3 0.00 0.00 0.00 63 1015.4
20260903181510 97 204 2.6 5.2 0.00 0.00 0.00 59 1015.4
20260903180044 97 174 0.9 4.3 0.00 0.00 0.00 59 1015.6
20260903174600 97 159 0.0 3.5 0.00 0.00 0.00 64 1015.8
20260903173016 96 165 0.0 2.6 0.00 0.00 0.00 60 1015.9
20260903171544 95 138 0.9 3.5 0.00 0.00 0.00 65 1016.0
20260903170100 95 162 0.9 3.5 0.00 0.00 0.00 64 1016.1
20260903170001 95 139 1.7 3.5 0.00 0.00 0.00 66 1016.2